Flight Information

DEPARTURE
INDIAN SPRINGS, NV
Elevation:
3134
Runways:
8/26 - 9002x150 - ASPH
13/31 - 5476x100 - ASPH
Ground:
118.3
Tower:
118.3
DESTINATION
,
Elevation:
TPA:
1000 (est.)


6621.4 NM74° True-15° Var59° HDG

Flight Plan:
(click to file on line)

1. Type
2. Aircraft Identification
3. Aircraft Type / Special Equipment
4. True Airspeed
kts
5. Departure Airport
(ICAO code)
6. Arriving Airport
(ICAO code)
7. Cruising Altitude
ft
8. Alternate Airport
(ICAO code)
9. Route of Flight
10. Remarks


00:00:00 Departure ATIS: Destination ATIS:

Clearance Limit:
Route:
Altitude: Expect in minutes
Frequency:
Transponder: (7500 Hijack / 7600 Lost Comms / 7700 Emergency)


KINS 051558Z AUTO 33003KT 10SM CLR 32/M07 A3000 RMK AO2 SLP101 T03161067 $
Time: 2020-07-05T15:58:00Z
1593967094
Winds: 330 @ 3 kts
Visibility: 10.0 sm
Clouds (AGL): CLR
Temperature: 31.6 C
Dew Point: -6.7 C
Pressure: 30.0 in Hgbr


Notes:

Data extracted from FAA Digital Chart Supplement. Effective: 0901Z Thursday, May 21, 2020 to 0901Z Thursday, Jul 16, 2020
Current ATIS data is provided courtisy of PilotEdge.